Weather History for PAMR - October, 2013

Change the Weather History Date:

Thursday, October 17, 2013

  Actual Average Record
Temperature  
Mean Temperature 49 °F -  
Max Temperature 53 °F 38 °F 53 °F (2013)
Min Temperature 45 °F 25 °F 10 °F (1997)
Degree Days  
Heating Degree Days 16    
Moisture  
Dew Point 41 °F    
Average Humidity 77    
Maximum Humidity 86    
Minimum Humidity 64    
Precipitation  
Precipitation 0.11 in - - ()
Sea Level Pressure  
Sea Level Pressure 29.97 in    
Wind  
Wind Speed 3 mph (NW)    
Max Wind Speed 15 mph    
Max Gust Speed 20 mph    
Visibility 10 miles    
Events Rain    
Averages and records for this station are not official NWS values.
T = Trace of Precipitation, MM = Missing Value Source: NWS Daily Summary

Daily Weather History Graph

Daily Weather History Graph

Search for Another Location

Airport or City:

Trip Planner

Search our weather history database for the weather conditions in past years. The results will help you decide how hot, cold, wet, or windy it might be!

Date:

Astronomy

Oct. 17, 2013 Rise Set
Actual Time 8:48 AM AKDT 6:39 PM AKDT
Civil Twilight 8:03 AM AKDT 7:24 PM AKDT
Nautical Twilight 7:13 AM AKDT 8:14 PM AKDT
Astronomical Twilight 6:23 AM AKDT 9:04 PM AKDT
Moon 6:06 PM AKDT (10/17) 7:17 AM AKDT (10/17)
Length of Visible Light 11h 20m
Length of Day
9h 51m
Waxing Gibbous, 98% of the Moon is Illuminated
Oct 17
Waxing Gibbous
Oct 18
Full
Oct 26
Last Quarter
Nov 3
New
Nov 9
First Quarter

Hourly Weather History & Observations

Time (AKDT) Temp. Windchill Dew Point Humidity Pressure Visibility Wind Dir Wind Speed Gust Speed Precip Events Conditions
12:53 AM 48.0 °F - 39.9 °F 74% 30.13 in 10.0 mi Calm Calm - N/A   Overcast
1:53 AM 46.0 °F - 39.9 °F 79% 30.12 in 10.0 mi Calm Calm - N/A   Overcast
2:53 AM 45.0 °F - 39.0 °F 80% 30.11 in 10.0 mi Calm Calm - N/A   Overcast
3:53 AM 46.0 °F - 39.9 °F 79% 30.09 in 10.0 mi Calm Calm - N/A   Overcast
4:53 AM 45.0 °F - 39.0 °F 80% 30.08 in 10.0 mi Calm Calm - N/A   Overcast
5:53 AM 45.0 °F - 39.9 °F 82% 30.04 in 10.0 mi Calm Calm - 0.00 in Rain Light Rain
6:53 AM 45.0 °F 43.5 °F 39.9 °F 82% 30.03 in 10.0 mi North 3.5 mph - 0.01 in Rain Light Rain
7:53 AM 45.0 °F 43.5 °F 41.0 °F 86% 30.03 in 9.0 mi SW 3.5 mph - 0.02 in Rain Light Rain
8:53 AM 46.0 °F 42.5 °F 41.0 °F 83% 30.03 in 10.0 mi NE 6.9 mph - 0.03 in Rain Light Rain
9:53 AM 45.0 °F - 41.0 °F 86% 30.01 in 10.0 mi Calm Calm - 0.02 in   Mostly Cloudy
10:53 AM 46.0 °F 44.8 °F 41.0 °F 83% 29.99 in 10.0 mi North 3.5 mph - N/A   Mostly Cloudy
11:53 AM 48.0 °F - 41.0 °F 77% 29.98 in 10.0 mi Calm Calm - N/A   Mostly Cloudy
12:53 PM 48.9 °F - 41.0 °F 74% 29.98 in 10.0 mi WNW 11.5 mph - N/A   Scattered Clouds
1:53 PM 51.1 °F - 39.9 °F 66% 29.96 in 10.0 mi NW 4.6 mph - N/A   Scattered Clouds
2:53 PM 52.0 °F - 42.1 °F 69% 29.94 in 10.0 mi WNW 3.5 mph - N/A   Scattered Clouds
3:53 PM 53.1 °F - 41.0 °F 64% 29.92 in 10.0 mi NW 5.8 mph - N/A   Mostly Cloudy
4:53 PM 51.1 °F - 41.0 °F 68% 29.90 in 10.0 mi West 5.8 mph - 0.00 in   Overcast
5:53 PM 50.0 °F - 42.1 °F 74% 29.89 in 10.0 mi NW 3.5 mph - N/A   Overcast
6:53 PM 50.0 °F - 43.0 °F 77% 29.88 in 10.0 mi NE 4.6 mph - 0.01 in Rain Light Rain
7:53 PM 48.9 °F - 42.1 °F 77% 29.86 in 10.0 mi NNW 6.9 mph - 0.00 in Rain Light Rain
8:53 PM 48.0 °F - 43.0 °F 83% 29.84 in 10.0 mi West 15.0 mph 19.6 mph 0.01 in Rain Light Rain
9:53 PM 48.0 °F - 39.9 °F 74% 29.80 in 10.0 mi WNW 10.4 mph - 0.00 in   Overcast
10:53 PM 46.9 °F - 42.1 °F 83% 29.80 in 10.0 mi WNW 12.7 mph - 0.00 in Rain Light Rain
11:53 PM 46.9 °F - 41.0 °F 80% 29.79 in 10.0 mi WNW 5.8 mph - 0.01 in   Overcast